Weather History for Staunton, VA

Change the Weather History Date:

Thursday, January 31, 2013

  Actual Average Record
Temperature  
Mean Temperature 43 °F -  
Max Temperature 55 °F 44 °F 69 °F (2002)
Min Temperature 29 °F 24 °F 8 °F (2004)
Degree Days  
Heating Degree Days 22    
Moisture  
Dew Point 23 °F    
Average Humidity 53    
Maximum Humidity 83    
Minimum Humidity 36    
Precipitation  
Precipitation 0.06 in - - ()
Sea Level Pressure  
Sea Level Pressure 29.67 in    
Wind  
Wind Speed 13 mph (WSW)    
Max Wind Speed 22 mph    
Max Gust Speed 32 mph    
Visibility 10 miles    
Events Rain    
Averages and records for this station are not official NWS values.
T = Trace of Precipitation, MM = Missing Value Source: NWS Daily Summary

Daily Weather History Graph

Daily Weather History Graph

Search for Another Location

Airport:

Trip Planner

Search our weather history database for the weather conditions in past years. The results will help you decide how hot, cold, wet, or windy it might be!

Date:

Astronomy

Jan. 31, 2013 Rise Set
Actual Time 7:21 AM EST 5:37 PM EST
Civil Twilight 6:53 AM EST 6:05 PM EST
Nautical Twilight 6:21 AM EST 6:36 PM EST
Astronomical Twilight 5:50 AM EST 7:08 PM EST
Moon 10:32 PM EST (1/31) 9:24 AM EST (1/31)
Length of Visible Light 11h 12m
Length of Day
10h 16m
Waning Gibbous, 80% of the Moon is Illuminated
Jan 31
Waning Gibbous
Feb 3
Last Quarter
Feb 10
New
Feb 17
First Quarter
Feb 25
Full

Hourly Weather History & Observations

Time (EST) Temp. Windchill Dew Point Humidity Pressure Visibility Wind Dir Wind Speed Gust Speed Precip Events Conditions
12:15 AM 57.0 °F - 50.9 °F 80% 29.34 in 10.0 mi WSW 9.2 mph 24.2 mph 0.01 in Rain Light Rain
12:35 AM 56.3 °F - 49.5 °F 78% 29.33 in 10.0 mi SSW 12.7 mph 16.1 mph 0.01 in Rain Light Rain
12:55 AM 55.2 °F - 50.0 °F 83% 29.32 in 5.0 mi SSW 10.4 mph 18.4 mph 0.05 in Rain Rain
1:15 AM 54.7 °F - 49.6 °F 83% 29.31 in 10.0 mi SSW 9.2 mph - N/A Rain Light Rain
1:35 AM 54.7 °F - 48.7 °F 80% 29.28 in 10.0 mi SSW 8.1 mph - N/A Rain Rain
1:55 AM 53.6 °F - 48.2 °F 82% 29.28 in 10.0 mi SSW 12.7 mph 18.4 mph 0.01 in   Light Drizzle
2:15 AM 52.9 °F - 45.9 °F 77% 29.32 in 10.0 mi WSW 17.3 mph 26.5 mph N/A   Mostly Cloudy
2:35 AM 52.2 °F - 42.8 °F 70% 29.32 in 10.0 mi WSW 17.3 mph 23.0 mph N/A   Clear
2:55 AM 51.1 °F - 42.3 °F 72% 29.33 in 10.0 mi WSW 15.0 mph 20.7 mph N/A   Scattered Clouds
3:15 AM 50.0 °F - 39.2 °F 66% 29.35 in 10.0 mi West 11.5 mph 26.5 mph N/A Rain Light Rain
3:35 AM 48.0 °F - 33.6 °F 57% 29.36 in 10.0 mi West 18.4 mph 26.5 mph N/A   Scattered Clouds
3:55 AM 47.5 °F - 33.1 °F 57% 29.38 in 10.0 mi West 17.3 mph 23.0 mph N/A   Mostly Cloudy
4:15 AM 46.6 °F - 32.7 °F 59% 29.40 in 10.0 mi West 13.8 mph 19.6 mph N/A   Mostly Cloudy
4:35 AM 45.9 °F 39.1 °F 31.6 °F 58% 29.42 in 10.0 mi West 16.1 mph 25.3 mph N/A   Mostly Cloudy
4:55 AM 45.0 °F 37.9 °F 30.7 °F 57% 29.45 in 10.0 mi West 16.1 mph 27.6 mph N/A   Scattered Clouds
5:15 AM 42.4 °F 33.5 °F 31.5 °F 65% 29.47 in 10.0 mi West 20.7 mph 29.9 mph N/A   Mostly Cloudy
5:35 AM 40.8 °F 34.1 °F 30.4 °F 66% 29.49 in 10.0 mi WSW 11.5 mph 18.4 mph N/A   Scattered Clouds
5:55 AM 41.0 °F 33.5 °F 26.1 °F 55% 29.52 in 10.0 mi WSW 13.8 mph 29.9 mph N/A   Scattered Clouds
6:15 AM 39.7 °F 31.9 °F 25.7 °F 57% 29.54 in 10.0 mi West 13.8 mph 20.7 mph N/A   Scattered Clouds
6:35 AM 39.7 °F 31.9 °F 24.8 °F 55% 29.56 in 10.0 mi West 13.8 mph 21.9 mph N/A   Mostly Cloudy
6:55 AM 38.8 °F 31.6 °F 24.4 °F 56% 29.58 in 10.0 mi WNW 11.5 mph 18.4 mph N/A   Mostly Cloudy
7:15 AM 38.3 °F 29.3 °F 21.4 °F 51% 29.59 in 10.0 mi West 16.1 mph 28.8 mph N/A   Scattered Clouds
7:35 AM 37.8 °F 30.2 °F 20.1 °F 49% 29.61 in 10.0 mi West 11.5 mph 23.0 mph N/A   Clear
7:55 AM 37.8 °F 28.6 °F 19.8 °F 48% 29.61 in 10.0 mi West 16.1 mph 24.2 mph N/A   Clear
8:15 AM 37.8 °F 29.8 °F 19.4 °F 48% 29.63 in 10.0 mi West 12.7 mph 21.9 mph N/A   Clear
8:35 AM 36.9 °F 29.6 °F 21.9 °F 55% 29.64 in 10.0 mi West 10.4 mph 25.3 mph N/A   Scattered Clouds
8:55 AM 37.4 °F 28.5 °F 17.8 °F 45% 29.66 in 10.0 mi West 15.0 mph 25.3 mph N/A   Scattered Clouds
9:15 AM 38.3 °F 30.1 °F 20.7 °F 49% 29.66 in 10.0 mi West 13.8 mph 21.9 mph N/A   Scattered Clouds
9:35 AM 38.5 °F 30.7 °F 19.8 °F 47% 29.68 in 10.0 mi West 12.7 mph 19.6 mph N/A   Mostly Cloudy
9:55 AM 39.0 °F 30.6 °F 19.6 °F 46% 29.69 in 10.0 mi WSW 15.0 mph 24.2 mph N/A   Mostly Cloudy
10:15 AM 38.3 °F 28.7 °F 20.7 °F 49% 29.71 in 10.0 mi WSW 18.4 mph 26.5 mph N/A   Mostly Cloudy
10:35 AM 39.2 °F 31.2 °F 21.2 °F 49% 29.72 in 10.0 mi WSW 13.8 mph 21.9 mph N/A   Mostly Cloudy
10:55 AM 38.5 °F 31.6 °F 19.9 °F 47% 29.73 in 10.0 mi WSW 10.4 mph 21.9 mph N/A   Overcast
11:15 AM 37.9 °F 28.9 °F 19.9 °F 48% 29.73 in 10.0 mi WSW 16.1 mph 20.7 mph N/A   Overcast
11:35 AM 39.6 °F 29.7 °F 18.9 °F 43% 29.74 in 10.0 mi WSW 20.7 mph 32.2 mph N/A   Mostly Cloudy
11:55 AM 39.2 °F 31.2 °F 20.3 °F 47% 29.75 in 10.0 mi West 13.8 mph 23.0 mph N/A   Overcast
12:15 PM 39.2 °F 30.8 °F 18.7 °F 44% 29.76 in 10.0 mi West 15.0 mph 27.6 mph N/A   Scattered Clouds
12:35 PM 39.0 °F 29.6 °F 16.7 °F 40% 29.74 in 10.0 mi West 18.4 mph 31.1 mph N/A   Scattered Clouds
12:55 PM 39.4 °F 30.1 °F 16.3 °F 39% 29.74 in 10.0 mi West 18.4 mph 27.6 mph N/A   Scattered Clouds
1:15 PM 38.3 °F 30.1 °F 15.8 °F 40% 29.73 in 10.0 mi WSW 13.8 mph 25.3 mph N/A   Mostly Cloudy
1:35 PM 39.9 °F 30.8 °F 18.5 °F 42% 29.74 in 10.0 mi WSW 18.4 mph 24.2 mph N/A   Mostly Cloudy
1:55 PM 38.5 °F 28.6 °F 16.2 °F 40% 29.74 in 10.0 mi West 19.6 mph 26.5 mph N/A   Mostly Cloudy
2:15 PM 38.7 °F 28.3 °F 15.8 °F 39% 29.76 in 10.0 mi WSW 21.9 mph 25.3 mph N/A   Overcast
2:35 PM 37.4 °F 29.3 °F 14.7 °F 40% 29.77 in 10.0 mi West 12.7 mph 21.9 mph N/A   Mostly Cloudy
2:55 PM 37.6 °F 26.9 °F 14.5 °F 39% 29.78 in 10.0 mi WSW 21.9 mph 31.1 mph N/A   Overcast
3:15 PM 36.7 °F 27.6 °F 11.7 °F 36% 29.79 in 10.0 mi West 15.0 mph 29.9 mph N/A   Overcast
3:35 PM 37.8 °F 27.4 °F 14.0 °F 38% 29.79 in 10.0 mi WSW 20.7 mph 26.5 mph N/A   Overcast
3:55 PM 36.5 °F 27.8 °F 12.7 °F 38% 29.81 in 10.0 mi WSW 13.8 mph 29.9 mph N/A   Overcast
4:15 PM 36.0 °F 26.3 °F 13.3 °F 39% 29.81 in 10.0 mi West 16.1 mph 24.2 mph N/A   Overcast
4:35 PM 35.8 °F 25.7 °F 14.0 °F 41% 29.82 in 10.0 mi West 17.3 mph 25.3 mph N/A   Overcast
4:55 PM 35.2 °F 26.6 °F 13.8 °F 41% 29.83 in 10.0 mi WNW 12.7 mph 20.7 mph N/A   Overcast
5:15 PM 34.3 °F 24.2 °F 15.6 °F 46% 29.84 in 10.0 mi West 16.1 mph 24.2 mph N/A   Mostly Cloudy
5:35 PM 32.9 °F 24.7 °F 20.1 °F 59% 29.86 in 10.0 mi West 10.4 mph - N/A   Overcast
5:55 PM 33.1 °F 25.5 °F 18.1 °F 54% 29.86 in 10.0 mi West 9.2 mph 16.1 mph N/A   Mostly Cloudy
6:15 PM 33.3 °F 27.1 °F 18.1 °F 54% 29.87 in 10.0 mi SSW 6.9 mph - N/A   Mostly Cloudy
6:35 PM 33.3 °F 25.7 °F 15.3 °F 48% 29.87 in 10.0 mi West 9.2 mph 16.1 mph N/A   Mostly Cloudy
6:55 PM 33.1 °F 27.7 °F 13.6 °F 45% 29.87 in 10.0 mi West 5.8 mph - N/A   Mostly Cloudy
7:15 PM 32.4 °F 27.9 °F 14.7 °F 48% 29.88 in 10.0 mi WSW 4.6 mph - N/A   Mostly Cloudy
7:35 PM 32.9 °F 24.7 °F 13.6 °F 45% 29.88 in 10.0 mi West 10.4 mph 18.4 mph N/A   Mostly Cloudy
7:55 PM 32.7 °F 23.0 °F 14.2 °F 47% 29.88 in 10.0 mi West 13.8 mph 24.2 mph N/A   Scattered Clouds
8:15 PM 32.4 °F 24.0 °F 13.6 °F 46% 29.89 in 10.0 mi West 10.4 mph - N/A   Scattered Clouds
8:35 PM 32.0 °F 25.6 °F 14.0 °F 48% 29.88 in 10.0 mi WSW 6.9 mph - N/A   Mostly Cloudy
8:55 PM 32.0 °F 26.4 °F 13.5 °F 46% 29.88 in 10.0 mi WSW 5.8 mph - N/A   Overcast
9:15 PM 32.0 °F 24.8 °F 13.8 °F 47% 29.88 in 10.0 mi WSW 8.1 mph - N/A   Overcast
9:35 PM 32.0 °F 24.8 °F 13.8 °F 47% 29.88 in 10.0 mi WSW 8.1 mph - N/A   Mostly Cloudy
9:55 PM 31.8 °F 27.3 °F 14.5 °F 49% 29.88 in 10.0 mi SW 4.6 mph - N/A   Scattered Clouds
10:15 PM 30.9 °F 26.2 °F 14.9 °F 52% 29.89 in 10.0 mi SW 4.6 mph - N/A   Scattered Clouds
10:35 PM 29.8 °F 24.9 °F 15.8 °F 56% 29.89 in 10.0 mi WSW 4.6 mph - N/A   Scattered Clouds
10:55 PM 31.5 °F - 16.2 °F 53% 29.89 in 10.0 mi Calm Calm - N/A   Overcast
11:15 PM 30.6 °F 27.1 °F 16.5 °F 56% 29.88 in 10.0 mi SSE 3.5 mph - N/A   Mostly Cloudy
11:35 PM 30.0 °F - 17.4 °F 59% 29.86 in 10.0 mi Calm Calm - N/A   Overcast
11:55 PM 30.2 °F 25.4 °F 17.6 °F 60% 29.86 in 10.0 mi South 4.6 mph - N/A   Mostly Cloudy